Helicity
37 39 35 36 30 27 28 23 22 22 23 15 14 16 17 8 -4 25 31 152 207 167 159 117 142 90 123 147 157 155 316 240 220 188 176 108 86 202 207 156 216 254 273 201 204
34 37 31 29 27 23 18 20 18 22 22 21 19 21 29 43 46 62 146 231 201 150 116 97 159 125 163 184 208 225 317 230 220 136 116 147 126 124 156 172 241 246 268 232 200
37 36 29 24 22 14 12 11 10 11 22 24 33 42 51 33 47 255 205 247 232 129 142 116 149 167 177 147 152 168 222 150 148 210 193 242 302 213 126 194 124 125 177 164 209
40 34 20 14 12 4 -1 -0 -1 3 16 27 35 58 61 56 92 338 217 201 146 151 157 117 129 205 208 194 147 179 119 121 207 182 212 282 269 331 215 180 213 99 160 144 143
29 24 17 6 -2 -10 -9 -6 1 7 19 24 45 85 102 122 144 90 205 145 65 113 126 164 228 98 186 154 138 134 98 105 77 139 248 244 259 209 205 140 149 264 196 138 149
26 21 18 8 -6 -15 -14 -15 -1 8 16 31 75 104 108 111 193 180 106 58 50 84 100 107 121 144 146 100 130 99 84 111 123 89 163 213 207 149 150 116 122 161 118 97 196
15 21 18 11 -3 -12 -13 -8 9 7 36 57 98 130 133 87 102 62 56 26 25 34 50 69 92 112 149 133 77 95 102 88 57 113 147 112 215 128 129 108 135 119 75 119 213
12 19 19 9 7 -2 -8 4 5 14 56 41 100 137 165 81 26 21 41 52 59 49 32 44 51 85 74 108 137 136 58 188 95 110 108 130 180 185 123 124 105 94 81 135 188
11 16 18 14 14 17 17 3 35 14 26 3 97 144 135 66 62 62 62 55 46 29 44 56 49 64 72 94 101 171 147 160 127 51 163 128 168 176 129 80 91 136 153 164 219
12 11 18 20 18 28 38 50 -14 79 49 51 69 168 112 93 58 28 49 43 28 33 45 53 53 62 64 82 9 151 102 126 84 66 79 104 113 151 149 107 89 133 177 149 209
8 9 11 21 23 20 49 3 -98 90 156 143 -38 18 3 17 37 60 114 46 23 42 8 -20 62 59 46 42 82 92 39 -22 43 -17 102 28 96 120 135 162 138 125 117 127 164
11 8 9 12 14 -0 47 24 114 145 194 84 -42 -6 16 51 42 22 70 47 37 -3 23 23 48 4 13 41 46 75 58 38 80 201 166 95 67 66 115 134 123 173 229 171 208
16 15 19 19 -8 45 90 160 120 154 194 81 17 70 32 58 55 42 78 22 2 31 15 17 14 54 9 41 55 43 18 24 69 56 21 54 64 40 173 114 193 233 277 297 278
20 19 28 25 65 72 156 111 132 121 237 182 151 144 29 26 27 139 120 54 49 29 13 25 -8 5 13 22 -44 43 -29 -23 139 156 183 158 133 72 146 235 201 203 255 288 276
31 21 6 28 74 87 128 105 139 121 398 217 126 93 17 15 22 79 101 78 3 27 -3 -11 -55 -44 -51 17 61 36 49 105 51 88 199 121 139 83 90 157 154 137 157 230 291
37 25 26 83 73 133 97 70 116 175 271 199 50 -3 11 4 8 -28 -73 80 26 12 18 30 -23 -50 -37 25 14 13 -1 90 82 179 151 91 111 58 114 123 130 168 157 199 243
36 17 50 48 113 75 69 86 89 243 165 211 56 20 12 -1 9 3 -38 39 -12 12 11 25 3 14 25 44 67 86 74 119 49 121 107 128 87 72 143 241 218 287 215 177 190
35 20 77 83 66 73 72 32 212 244 199 45 11 35 12 -39 18 10 -0 42 14 32 14 8 -17 65 134 88 71 55 99 82 92 118 118 135 82 116 86 147 184 432 273 149 183
29 87 75 82 59 61 67 129 164 199 103 41 28 26 18 19 16 4 14 -35 18 42 25 2 6 16 53 68 99 73 80 86 93 31 71 80 121 103 66 81 189 297 171 111 141
81 74 106 49 46 78 73 130 174 140 43 46 79 12 -16 3 34 27 29 -7 82 61 43 12 -10 11 37 65 83 96 77 97 61 37 81 48 91 92 55 63 105 130 161 153 135
81 106 85 46 61 95 93 98 124 71 41 47 34 20 8 6 59 2 -3 -17 43 118 71 50 6 11 56 56 85 84 68 77 74 61 47 61 70 84 63 105 86 59 92 132 153
98 137 64 57 114 49 80 99 94 65 25 21 13 8 27 9 32 5 -6 -30 -15 61 49 58 27 19 28 3 10 60 64 60 53 89 87 20 24 39 48 70 81 79 80 101 145
129 110 60 60 86 64 63 111 92 63 31 15 7 3 3 12 14 11 6 -31 -12 26 45 72 22 12 10 15 6 4 66 41 -10 26 70 78 24 -11 33 75 83 78 83 89 87
104 151 95 88 50 61 86 115 119 34 12 -4 1 8 -0 10 -2 9 9 1 25 8 62 29 11 13 27 29 30 38 48 46 35 26 38 55 27 22 24 52 65 78 68 62 68
104 130 88 124 90 90 85 102 96 57 1 -2 6 -3 -2 10 24 26 -12 17 40 21 27 14 36 34 25 30 20 45 52 55 65 58 55 72 58 47 51 45 33 31 42 42 47
121 104 88 106 86 80 99 104 65 7 31 1 15 -10 17 29 45 23 9 -9 -5 16 44 57 23 23 36 26 37 45 66 61 97 75 77 88 62 46 42 45 57 39 35 42 48
94 94 92 118 105 86 118 90 30 -1 16 46 28 27 25 41 -18 -21 -8 7 18 -5 31 37 34 45 32 36 32 29 47 75 66 95 97 69 57 37 47 46 31 28 35 42 46
Wind_Speed
71 73 74 75 76 77 78 79 80 81 80 81 81 81 83 84 86 78 74 57 52 52 51 52 49 38 46 48 44 44 76 96 86 84 75 66 51 42 45 43 40 39 39 13 12
73 74 75 78 78 80 81 82 83 82 82 82 81 82 83 82 85 83 63 44 53 52 56 53 55 43 52 57 54 62 83 95 72 71 74 70 55 49 49 48 43 36 19 11 14
74 76 78 80 81 84 84 85 85 82 81 82 81 81 79 74 83 61 52 50 53 51 55 52 53 56 62 59 62 73 98 77 80 78 65 63 60 55 47 58 51 42 31 23 22
76 77 80 82 84 86 88 88 87 84 83 82 83 78 69 66 78 52 53 56 59 61 63 60 57 67 73 73 63 86 86 90 87 68 69 70 63 65 55 54 52 38 28 30 31
77 79 81 85 87 88 89 90 84 83 85 83 78 65 66 65 67 61 56 59 60 64 68 69 73 67 77 75 71 83 89 79 68 85 68 67 74 68 62 49 41 24 28 33 37
78 80 83 86 89 92 91 89 86 87 87 79 66 58 63 78 52 60 63 63 65 69 69 64 67 68 76 74 82 73 86 81 86 78 68 73 74 66 65 49 39 35 36 35 40
80 82 84 87 90 93 91 85 84 85 79 67 62 55 67 59 57 61 62 59 56 50 57 53 52 53 58 72 71 84 89 79 81 75 70 61 79 76 59 50 47 45 41 39 39
82 84 85 88 89 92 89 86 79 77 64 67 58 52 63 51 47 54 59 67 51 38 37 46 50 46 52 58 62 65 84 86 70 77 71 70 93 69 53 52 52 47 42 41 42
83 85 86 88 88 88 84 81 71 65 51 64 53 49 69 44 53 68 62 61 55 52 44 51 52 50 57 58 64 68 83 86 82 62 55 67 73 72 56 54 54 47 44 43 44
83 86 85 87 88 82 79 78 72 54 63 52 48 62 45 69 68 69 48 48 57 53 47 42 44 38 47 52 60 48 60 66 80 67 67 71 72 65 56 57 54 49 45 47 48
84 87 88 87 85 78 84 76 85 63 86 73 60 57 57 60 57 60 49 51 53 41 42 18 30 38 55 67 71 57 48 59 55 66 56 66 60 71 49 57 56 51 47 44 49
85 87 89 88 79 70 73 78 75 63 88 61 47 46 49 53 65 60 48 64 47 56 27 28 36 44 55 67 85 71 74 63 46 40 48 58 67 58 53 60 64 57 51 45 40
83 86 88 85 66 68 69 77 69 59 73 60 51 59 61 55 54 45 56 23 28 34 35 29 12 43 66 68 66 83 81 72 59 41 45 44 57 59 50 54 53 49 53 48 45
83 84 87 81 61 73 63 76 66 52 74 72 71 54 63 60 44 47 40 45 29 17 32 22 40 50 55 73 79 57 77 65 35 42 54 45 62 60 44 48 52 54 53 52 46
79 83 80 68 62 70 68 67 56 50 95 77 69 56 65 54 54 43 35 21 21 30 34 30 32 40 49 64 60 59 43 51 51 32 39 50 53 53 61 60 58 55 57 53 49
78 81 70 63 58 66 64 56 50 74 87 78 65 73 68 61 57 38 34 22 22 25 21 26 33 32 28 57 76 32 31 30 46 28 46 45 48 53 56 61 55 51 53 52 48
76 72 57 58 66 63 57 55 76 90 81 79 76 68 58 64 53 54 38 45 38 21 29 29 28 30 22 8 18 32 43 38 40 39 43 36 44 43 36 41 43 41 44 47 46
75 58 48 55 62 58 56 65 88 80 77 65 62 58 58 67 53 52 49 52 36 32 23 27 29 32 33 23 31 29 34 38 37 37 39 32 50 46 30 29 31 28 32 39 42
66 49 46 63 58 54 64 83 78 76 70 66 62 64 54 60 49 53 51 49 40 40 33 23 32 29 29 29 27 28 39 33 36 32 32 35 35 32 29 30 25 27 30 36 38
58 49 50 65 55 53 66 70 65 63 62 58 62 55 58 52 51 53 53 47 45 41 34 32 27 26 30 32 26 26 29 37 35 34 40 34 32 39 37 36 32 30 33 34 33
47 53 54 63 52 60 71 66 60 58 59 54 54 51 48 47 36 49 52 42 49 44 36 33 31 28 30 25 35 35 35 33 34 34 31 36 37 35 36 32 31 30 32 33 34
47 55 57 57 62 60 67 62 55 55 52 50 40 44 41 40 33 46 51 47 46 47 36 33 32 27 28 26 26 31 40 33 33 37 34 27 32 36 37 32 23 24 24 26 27
53 50 52 54 66 68 60 60 57 57 53 51 43 41 39 33 35 47 50 46 47 42 37 35 30 32 32 33 32 30 31 32 27 38 35 36 33 30 23 22 21 14 18 20 21
50 56 51 52 50 58 63 62 65 51 43 44 38 37 40 34 47 39 52 44 45 41 40 35 31 30 28 31 33 33 32 33 38 34 36 34 21 23 19 15 15 14 16 19 23
46 49 47 58 58 55 56 58 62 62 42 41 41 42 39 30 36 41 49 43 42 41 40 32 34 35 33 33 32 32 38 35 33 29 34 28 20 21 19 15 17 18 20 22 26
45 45 43 47 49 51 51 54 55 55 43 44 43 37 32 27 38 54 49 43 38 46 41 39 35 35 36 32 32 31 29 31 30 26 22 14 23 24 23 19 21 23 25 29 31
36 37 40 43 46 49 52 50 48 48 37 30 34 35 30 35 55 56 51 45 41 42 41 38 37 34 34 34 34 34 34 33 32 32 34 34 29 26 26 28 30 32 34 37 38
Wind_Direction
355 352 353 355 352 350 349 346 343 340 339 337 337 335 332 330 328 328 323 324 325 327 321 312 308 293 292 280 275 274 272 267 266 265 270 272 277 274 274 273 273 272 278 263 200
356 356 355 352 352 349 346 344 342 341 339 337 337 334 333 333 328 324 330 329 329 325 315 302 296 285 278 280 275 264 266 267 271 269 269 271 274 272 268 265 267 270 272 225 193
353 352 351 351 349 345 345 344 342 342 340 337 336 336 335 336 330 331 348 345 338 330 317 307 297 285 275 269 266 264 263 270 267 266 274 272 269 271 268 263 262 256 249 233 220
351 351 349 347 346 344 342 342 341 340 339 337 335 336 339 337 330 337 339 332 329 323 315 306 294 285 277 265 262 264 264 265 268 268 269 264 266 265 267 266 273 249 235 235 229
351 349 347 345 343 345 343 342 343 342 338 336 336 340 341 332 325 327 334 332 326 316 307 300 294 281 273 270 264 262 262 265 266 262 268 263 259 262 263 266 278 228 235 237 235
351 348 346 345 345 342 343 343 343 341 338 339 343 344 338 329 341 339 333 327 321 315 308 301 290 287 280 266 262 261 262 262 262 264 258 258 256 258 258 261 257 248 248 239 231
350 349 348 347 346 343 344 346 345 342 344 346 345 342 335 327 334 337 334 330 329 325 315 309 299 287 281 274 265 261 259 257 258 259 254 257 255 250 254 252 251 251 249 236 233
348 348 349 348 348 345 346 346 346 345 348 350 350 347 339 344 346 341 338 331 330 324 319 317 303 288 275 278 269 256 255 250 254 251 254 249 250 250 245 246 247 246 242 235 235
348 350 350 351 351 350 350 349 348 349 357 350 350 350 342 358 347 342 339 332 330 322 313 306 301 281 274 262 260 256 249 250 251 250 248 246 253 252 242 244 243 240 237 236 236
349 349 353 354 353 354 354 350 352 360 358 358 357 348 355 345 345 342 347 344 332 326 317 302 299 280 266 256 254 244 250 249 248 250 244 248 251 252 238 238 238 235 236 239 236
350 350 352 354 355 357 357 360 359 357 354 351 342 344 343 347 350 350 358 346 338 341 332 320 301 284 264 254 251 253 254 249 246 247 240 245 250 248 246 241 239 234 233 235 235
350 351 352 353 357 1 3 4 2 354 349 353 354 351 346 352 347 353 359 337 346 308 352 328 299 285 264 249 238 245 248 253 256 244 242 244 249 251 246 244 242 241 233 229 232
351 352 353 354 1 3 3 5 2 3 354 1 9 2 0 358 352 2 354 3 257 249 220 205 301 287 242 243 243 239 241 246 250 242 247 247 250 250 244 248 242 245 236 233 229
352 354 354 357 5 1 7 1 5 12 359 6 5 12 3 1 17 11 25 14 24 191 232 179 228 217 248 230 212 237 220 231 248 233 246 251 252 250 242 245 242 241 237 237 238
355 355 356 3 1 3 1 1 10 15 355 0 5 12 4 14 8 24 38 37 214 214 248 243 236 225 213 221 231 238 244 244 241 241 254 251 257 256 246 246 245 243 240 240 241
355 355 1 7 6 4 2 6 15 3 358 1 5 4 10 16 5 300 304 73 198 213 157 206 263 237 172 211 181 227 235 240 246 248 249 254 255 262 249 248 251 242 238 240 242
355 357 6 8 3 3 7 12 4 2 1 1 3 8 11 16 18 331 311 329 328 230 63 45 275 256 250 250 247 246 231 242 249 256 259 262 258 270 268 261 258 236 236 242 244
355 0 10 11 6 9 14 9 3 4 4 4 9 8 23 18 10 327 328 338 324 312 229 247 286 268 264 274 263 253 246 245 258 263 264 273 263 264 277 284 273 247 240 244 242
359 9 12 7 10 15 10 7 5 5 6 6 11 17 21 19 4 337 338 341 317 318 299 258 328 279 283 284 285 263 248 254 264 287 276 276 280 284 279 278 276 253 249 244 241
2 9 12 6 13 16 12 9 10 13 11 14 14 20 18 23 21 339 337 334 318 307 282 268 277 263 254 271 283 261 258 250 265 278 267 277 273 268 268 268 265 257 250 246 242
7 4 10 9 19 16 10 10 11 15 18 17 19 18 25 25 34 350 337 320 320 306 295 274 257 269 218 246 248 245 254 259 268 274 286 274 282 289 279 276 264 260 252 246 244
5 359 9 13 10 13 10 11 13 15 21 23 26 26 30 26 36 355 334 324 312 318 292 286 265 263 255 260 251 263 253 260 261 268 281 305 300 299 275 274 268 258 253 248 250
358 1 11 17 5 8 12 13 16 15 19 24 26 29 28 34 32 346 318 313 315 318 306 276 280 259 256 255 259 264 253 257 263 266 277 280 297 311 292 279 269 258 250 251 255
358 355 5 16 19 12 10 12 13 21 27 28 27 33 29 36 342 356 325 305 298 312 304 277 275 270 275 260 262 261 257 260 259 271 272 274 306 303 299 283 267 260 253 254 255
1 358 5 0 7 13 15 14 13 16 29 33 33 31 33 35 17 342 311 290 294 311 310 307 272 272 277 279 280 280 259 265 270 283 274 271 290 287 287 283 264 259 262 266 271
355 359 6 5 9 11 14 14 15 18 27 27 28 26 33 33 6 295 285 289 292 296 304 304 279 274 266 280 282 276 281 273 275 285 301 312 287 284 281 296 293 288 284 284 286
3 9 6 5 7 9 11 14 18 22 34 40 31 22 29 20 290 277 264 252 250 281 284 287 276 274 268 271 267 271 273 272 272 275 271 269 285 290 291 294 292 290 288 284 285